Regional Weather Roundup
Issued by NWS

Home | Current Version | Previous Version | Graphics & Text | Print | Product List | Glossary On
Versions: 1 2 3 4 5 6 7 8 9 10 11 12 13 14 15 16 17 18 19 20 21 22 23 24 25 26 27 28 29 30 31 32 33 34 35 36 37 38 39 40 41 42 43 44 45 46 47 48 49 50
000
ASUS44 KMEG 111800
RWRTN
TENNESSEE HOURLY STATE WEATHER ROUNDUP
NATIONAL WEATHER SERVICE MEMPHIS TN
100 PM CDT FRI JUL 11 2014

TNZ002-004-019-021-049-052-054-088>092-111900-
WEST TENNESSEE

CITY           SKY/WX    TMP DP  RH WIND       PRES   REMARKS
MEMPHIS INTL   PTSUNNY   86  70  58 CALM      30.17F HX  90
NWS MEMPHIS      N/A     88 N/A N/A MISG        N/A
JACKSON        SUNNY     87  62  43 VRB3      30.17F
DYERSBURG      MOSUNNY   88  61  40 CALM      30.18S
$$

TNZ008-025-027-028-033-062-065-066-111900-
NORTH MIDDLE TENNESSEE

CITY           SKY/WX    TMP DP  RH WIND       PRES   REMARKS
NASHVILLE      MOSUNNY   90  61  37 NE3       30.17F HX  90
CLARKSVILLE    MOSUNNY   87  61  41 W6        30.17F
CROSSVILLE     SUNNY     82  54  37 VRB3      30.24F
$$

TNZ061-075-076-078-094-096-097-111900-
SOUTH MIDDLE TENNESSEE

CITY           SKY/WX    TMP DP  RH WIND       PRES   REMARKS
$$

TNZ017-018-042-046-047-111900-
NORTHEAST TENNESSEE

CITY           SKY/WX    TMP DP  RH WIND       PRES   REMARKS
TRI CITIES     MOSUNNY   88  54  31 VRB5      30.20F
$$

TNZ012-013-036-069-073-074-111900-
CENTRAL EAST TENNESSEE

CITY           SKY/WX    TMP DP  RH WIND       PRES   REMARKS
KNOXVILLE      NOT AVBL
OAK RIDGE      MOSUNNY   87  61  41 VRB3      30.19F
$$

TNZ083-085-099-111900-
SOUTHEAST TENNESSEE

CITY           SKY/WX    TMP DP  RH WIND       PRES   REMARKS
CHATTANOOGA    MOSUNNY   86  66  51 N7        30.17F
$$

SKY/WX REPORTED AS FAIR MEANS FEW OR NO CLOUDS BELOW
12 THOUSAND FEET.



USA.gov is the U.S. government's official web portal to all federal, state and local government web resources and services.